Location: Haliburton Scout Reserve
(45.0900°N, 78.3200°W)
Time: 01:35:06
(UTC-04:00)

ESTCUBE 1 - Pass Details

Date: 18 May 2022
Orbit: 644 x 659 km, 97.9° (Epoch: 27 June)

Event Time Altitude Azimuth Distance (km) Brightness Sun altitude
Exits shadow 22:00:09 11° 97° (E) 2,019 ? -12.2°
Maximum altitude 22:02:40 16° 61° (ENE) 1,701 ? -12.5°
Drops below altitude 10° 22:05:23 10° 24° (NNE) 2,072 ? -12.8°
Sets 22:08:21 0° 3° (N) 2,985 ? -13.2°
